CAPE
0 0 0 0 0 0 0 0 0 0 0 0 0 0 0 0 0 0 0 0 0 0 0 0 0 0 0 0 0 0 0 0 0 0 0 0 0 0 0 0 0 0 0 0 0 0 0
0 0 0 0 0 0 0 0 0 0 0 0 0 0 0 0 0 0 0 0 0 0 0 0 0 0 0 0 0 0 0 0 0 0 0 0 0 0 0 0 0 0 0 0 0 0 5
0 0 0 0 0 0 0 0 0 0 0 0 0 0 0 0 0 0 0 0 0 0 0 0 0 0 0 0 0 0 0 0 0 0 0 0 0 0 0 0 0 0 0 0 0 0 1
8 0 0 0 0 0 0 0 0 0 0 0 0 0 0 0 0 0 0 0 0 0 0 0 0 0 0 0 0 0 0 0 0 0 0 0 0 0 0 0 0 0 0 0 0 0 21
15 13 1 0 0 0 0 0 0 0 0 0 0 0 0 0 0 0 0 0 0 0 0 0 0 0 0 0 0 0 0 0 0 0 0 0 0 0 0 0 0 0 0 0 0 0 0
19 17 10 4 0 0 0 0 0 0 0 0 0 0 0 0 0 0 0 0 0 0 0 0 0 0 0 0 0 0 0 0 0 0 0 0 0 0 0 0 0 0 0 0 0 0 0
13 17 7 0 0 0 0 0 0 0 0 0 0 0 0 0 0 0 0 0 0 0 0 0 0 0 0 0 0 0 0 0 0 0 0 0 0 0 0 0 0 0 0 0 0 0 0
0 7 10 7 2 0 0 0 0 0 0 0 0 0 0 0 0 0 0 0 0 0 0 0 0 0 0 0 0 0 0 0 0 0 0 0 0 0 0 0 0 0 0 0 0 0 0
7 0 0 5 0 4 0 0 0 0 0 0 0 0 0 0 0 0 0 0 0 0 0 0 0 0 0 0 0 0 0 0 0 0 0 0 0 0 0 0 0 0 0 0 0 0 0
12 0 0 0 7 0 0 0 0 0 0 0 0 0 0 0 0 0 0 0 0 1 0 0 0 0 0 0 0 0 0 0 0 0 0 0 0 0 0 0 0 0 0 0 0 0 0
25 15 2 0 0 0 0 0 0 0 0 0 0 0 0 0 0 0 0 0 0 0 0 0 0 0 0 0 0 0 0 0 0 0 0 0 0 0 0 0 0 0 0 0 0 0 0
22 24 6 0 0 0 0 0 0 0 0 0 0 0 0 0 0 1 0 0 0 0 0 0 0 0 0 0 0 0 0 0 0 0 0 0 0 0 0 0 0 0 0 0 0 0 0
25 27 23 10 0 0 0 0 0 0 0 0 0 0 0 0 0 0 0 0 0 0 0 0 0 0 0 0 0 0 0 0 0 0 0 0 0 0 0 0 0 0 0 0 0 0 0
20 26 27 20 10 0 0 0 0 0 0 0 0 0 0 0 0 0 0 3 0 0 0 0 0 0 0 0 0 0 0 0 0 0 0 0 0 0 0 0 0 0 0 0 0 0 0
10 5 15 21 11 5 0 0 0 0 0 0 0 0 0 0 0 0 3 0 0 0 0 0 0 0 0 0 0 0 0 0 0 0 0 0 0 0 0 0 0 0 0 0 0 0 0
5 1 0 0 13 11 0 0 0 0 0 0 0 0 0 0 0 0 9 0 0 0 0 0 0 0 0 0 0 0 0 0 0 0 0 0 0 0 0 0 0 0 0 0 0 0 0
0 0 0 0 0 4 4 0 0 0 0 0 5 0 0 0 3 1 1 0 0 0 0 0 0 0 0 0 0 0 0 0 0 0 0 0 0 0 0 0 0 0 0 0 0 0 0
7 4 0 0 0 0 2 0 0 0 1 0 9 0 0 0 0 0 0 0 0 0 0 0 0 0 0 0 0 0 0 0 0 0 0 0 0 0 0 0 0 0 0 0 0 0 0
7 8 0 0 0 0 0 0 0 0 7 16 17 8 4 5 0 0 0 0 0 0 0 0 0 0 0 0 0 0 0 0 0 0 0 0 0 0 0 0 0 0 0 0 0 0 0
5 10 4 0 0 0 0 1 0 0 9 27 16 4 14 16 7 3 0 0 0 0 0 0 0 0 0 0 0 0 0 0 0 0 0 0 0 0 0 0 0 0 0 0 0 0 0
7 3 8 8 4 0 5 0 3 0 5 38 14 19 16 6 6 4 0 0 0 0 0 0 0 0 0 0 0 0 0 0 0 0 0 0 0 0 0 0 0 0 0 0 0 0 1
5 14 19 10 2 0 6 0 0 1 6 37 25 16 13 13 3 1 0 0 0 0 0 0 0 0 0 0 0 0 0 0 0 0 0 0 0 0 0 0 0 0 0 0 0 0 0
1 4 13 18 23 5 7 3 0 7 16 18 21 19 10 11 6 1 0 1 0 1 0 0 0 0 0 0 3 3 1 1 0 0 0 0 0 1 0 0 0 0 0 0 0 0 0
1 5 21 22 24 25 10 3 0 2 19 24 19 26 23 6 15 10 9 11 8 6 0 1 0 0 3 7 4 0 0 0 0 0 0 0 0 0 0 0 0 0 0 0 0 0 0
3 5 14 15 19 22 8 4 0 0 10 41 35 26 9 9 11 15 17 17 16 10 8 8 2 2 14 15 7 0 0 0 0 0 0 0 0 0 0 0 0 0 0 0 0 0 0
4 7 18 13 14 18 11 3 0 1 40 33 40 42 34 14 0 12 11 15 10 10 16 26 23 3 0 5 5 1 0 0 0 0 0 0 0 5 0 0 0 0 0 0 0 0 0
3 7 18 10 7 12 2 0 0 6 15 28 24 48 39 11 5 15 28 20 17 21 19 19 11 10 12 8 8 7 1 1 0 0 0 1 10 0 8 14 0 0 0 0 4 0 0
7 15 15 10 10 14 0 0 0 28 17 19 26 47 28 14 5 15 10 15 15 14 7 17 6 21 7 15 14 24 17 6 5 0 0 0 2 1 8 16 7 0 0 0 0 0 0
22 22 7 4 31 35 7 28 35 35 4 27 21 32 62 39 11 7 11 7 4 0 16 8 15 16 12 2 10 16 18 13 27 8 0 1 4 17 5 4 0 0 0 0 0 0 0
CIN
-0 -0 -0 -0 -0 -0 -0 -0 -0 -0 -0 -0 -0 -0 -0 -0 -0 -0 -0 -0 -0 -0 -0 -0 -0 -0 -0 -0 -0 -0 -0 -0 -0 -0 -0 -0 -0 -0 -0 -0 -0 -0 -0 -0 -0 -0 -0
-0 -0 -0 -0 -0 -0 -0 -0 -0 -0 -0 -0 -0 -0 -0 -0 -0 -0 -0 -0 -0 -0 -0 -0 -0 -0 -0 -0 -0 -0 -0 -0 -0 -0 -0 -0 -0 -0 -0 -0 -0 -0 -0 -0 -0 -0 -109
-0 -0 -0 -0 -0 -0 -0 -0 -0 -0 -0 -0 -0 -0 -0 -0 -0 -0 -0 -0 -0 -0 -0 -0 -0 -0 -0 -0 -0 -0 -0 -0 -0 -0 -0 -0 -0 -0 -0 -0 -0 -0 -0 -0 -0 -0 -40
-1 -0 -0 -0 -0 -0 -0 -0 -0 -0 -0 -0 -0 -0 -0 -0 -0 -0 -0 -0 -0 -0 -0 -0 -0 -0 -0 -0 -0 -0 -0 -0 -0 -0 -0 -0 -0 -0 -0 -0 -0 -0 -0 -0 -0 -0 -20
-3 -2 -0 -0 -0 -0 -0 -0 -0 -0 -0 -0 -0 -0 -0 -0 -0 -0 -0 -0 -0 -0 -0 -0 -0 -0 -0 -0 -0 -0 -0 -0 -0 -0 -0 -0 -0 -0 -0 -0 -0 -0 -0 -0 -0 -0 -0
-5 -6 -5 -1 -0 -0 -0 -0 -0 -0 -0 -0 -0 -0 -0 -0 -0 -0 -0 -0 -0 -0 -0 -0 -0 -0 -0 -0 -0 -0 -0 -0 -0 -0 -0 -0 -0 -0 -0 -0 -0 -0 -0 -0 -0 -0 -0
-0 -2 -2 -0 -0 -0 -0 -0 -0 -0 -0 -0 -0 -0 -0 -0 -0 -0 -0 -0 -0 -0 -0 -0 -0 -0 -0 -0 -0 -0 -0 -0 -0 -0 -0 -0 -0 -0 -0 -0 -0 -0 -0 -0 -0 -0 -0
-0 -1 -2 -0 -0 -0 -0 -0 -0 -0 -0 -0 -0 -0 -0 -0 -0 -0 -0 -0 -0 -0 -0 -0 -0 -0 -0 -0 -0 -0 -0 -0 -0 -0 -0 -0 -0 -0 -0 -0 -0 -0 -0 -0 -0 -0 -0
-2 -0 -0 -2 -0 -0 -0 -0 -0 -0 -0 -0 -0 -0 -0 -0 -0 -0 -0 -0 -0 -0 -0 -0 -0 -0 -0 -0 -0 -0 -0 -0 -0 -0 -0 -0 -0 -0 -0 -0 -0 -0 -0 -0 -0 -0 -0
-2 -0 -0 -0 -2 -0 -0 -0 -0 -0 -0 -0 -0 -0 -0 -0 -0 -0 -0 -0 -0 -0 -0 -0 -0 -0 -0 -0 -0 -0 -0 -0 -0 -0 -0 -0 -0 -0 -0 -0 -0 -0 -0 -0 -0 -0 -0
-0 -6 -10 -0 -0 -0 -0 -0 -0 -0 -0 -0 -0 -0 -0 -0 -0 -0 -0 -0 -0 -0 -0 -0 -0 -0 -0 -0 -0 -0 -0 -0 -0 -0 -0 -0 -0 -0 -0 -0 -0 -0 -0 -0 -0 -0 -0
-2 -1 -12 -0 -0 -0 -0 -0 -0 -0 -0 -0 -0 -0 -0 -0 -0 -0 -0 -0 -0 -0 -0 -0 -0 -0 -0 -0 -0 -0 -0 -0 -0 -0 -0 -0 -0 -0 -0 -0 -0 -0 -0 -0 -0 -0 -0
-0 -0 -0 -4 -0 -0 -0 -0 -0 -0 -0 -0 -0 -0 -0 -0 -0 -0 -0 -0 -0 -0 -0 -0 -0 -0 -0 -0 -0 -0 -0 -0 -0 -0 -0 -0 -0 -0 -0 -0 -0 -0 -0 -0 -0 -0 -0
-0 -0 -0 -0 -1 -0 -0 -0 -0 -0 -0 -0 -0 -0 -0 -0 -0 -0 -0 -4 -0 -0 -0 -0 -0 -0 -0 -0 -0 -0 -0 -0 -0 -0 -0 -0 -0 -0 -0 -0 -0 -0 -0 -0 -0 -0 -0
-1 -1 -0 -0 -1 -3 -0 -0 -0 -0 -0 -0 -0 -0 -0 -0 -0 -0 -1 -0 -0 -0 -0 -0 -0 -0 -0 -0 -0 -0 -0 -0 -0 -0 -0 -0 -0 -0 -0 -0 -0 -0 -0 -0 -0 -0 -0
-0 -0 -0 -0 -0 -0 -0 -0 -0 -0 -0 -0 -0 -0 -0 -0 -0 -0 -0 -0 -0 -0 -0 -0 -0 -0 -0 -0 -0 -0 -0 -0 -0 -0 -0 -0 -0 -0 -0 -0 -0 -0 -0 -0 -0 -0 -0
-0 -0 -0 -0 -0 -0 -3 -1 -0 -0 -0 -0 -1 -0 -0 -0 -0 -0 -0 -0 -0 -0 -0 -0 -0 -0 -0 -0 -0 -0 -0 -0 -0 -0 -0 -0 -0 -0 -0 -0 -0 -0 -0 -0 -0 -0 -0
-0 -2 -0 -0 -0 -0 -2 -0 -0 -0 -1 -0 -0 -0 -0 -0 -0 -0 -0 -0 -0 -0 -0 -0 -0 -0 -0 -0 -0 -0 -0 -0 -0 -0 -0 -0 -0 -0 -0 -0 -0 -0 -0 -0 -0 -0 -0
-1 -0 -0 -0 -0 -0 -0 -1 -0 -2 -12 -1 -1 -0 -0 -0 -0 -0 -0 -0 -0 -0 -0 -0 -0 -0 -0 -0 -0 -0 -0 -0 -0 -0 -0 -0 -0 -0 -0 -0 -0 -0 -0 -0 -0 -0 -0
-0 -0 -0 -0 -0 -0 -0 -0 -12 -0 -12 -1 -1 -0 -0 -0 -0 -0 -0 -0 -0 -0 -0 -0 -0 -0 -0 -0 -0 -0 -0 -0 -0 -0 -0 -0 -0 -0 -0 -0 -0 -0 -0 -0 -0 -0 -0
-0 -0 -0 -0 -0 -0 -0 -0 -5 -0 -5 -1 -2 -0 -0 -0 -0 -0 -0 -0 -0 -0 -0 -0 -0 -0 -0 -0 -0 -0 -0 -0 -0 -0 -0 -0 -0 -0 -0 -0 -0 -1 -0 -0 -0 -0 -0
-0 -0 -0 -0 -0 -0 -0 -0 -0 -12 -8 -0 -1 -0 -3 -1 -0 -0 -0 -0 -0 -0 -0 -0 -0 -0 -0 -0 -0 -0 -0 -0 -0 -0 -0 -0 -0 -0 -0 -0 -0 -0 -0 -0 -0 -0 -0
-0 -0 -0 -0 -0 -0 -0 -0 -0 -12 -4 -0 -1 -3 -3 -0 -1 -1 -0 -0 -0 -0 -0 -0 -0 -0 -0 -0 -1 -1 -1 -1 -0 -0 -0 -0 -0 -1 -0 -0 -0 -0 -0 -0 -0 -0 -0
-1 -0 -0 -0 -1 -1 -0 -0 -0 -2 -4 -0 -2 -0 -0 -1 -1 -2 -1 -1 -1 -1 -0 -0 -0 -0 -1 -1 -2 -1 -0 -0 -0 -0 -0 -0 -0 -0 -0 -0 -0 -0 -0 -0 -0 -0 -0
-0 -0 -0 -1 -1 -0 -0 -0 -0 -0 -7 -0 -1 -0 -0 -0 -1 -2 -3 -3 -1 -1 -1 -1 -2 -1 -1 -1 -0 -0 -0 -0 -0 -0 -0 -0 -0 -0 -0 -0 -0 -0 -0 -0 -0 -0 -0
-1 -0 -0 -1 -2 -1 -0 -0 -0 -2 -5 -0 -0 -1 -0 -0 -1 -1 -2 -2 -1 -2 -1 -1 -1 -0 -1 -0 -1 -0 -0 -0 -0 -0 -0 -0 -0 -0 -0 -0 -0 -0 -0 -0 -0 -0 -0
-0 -0 -0 -0 -0 -2 -0 -0 -0 -9 -14 -0 -0 -0 -0 -0 -1 -1 -0 -1 -1 -0 -2 -1 -0 -1 -1 -1 -0 -0 -3 -1 -0 -0 -0 -2 -4 -0 -0 -0 -0 -0 -0 -0 -0 -0 -0
-0 -0 -0 -0 -0 -0 -0 -0 -0 -6 -15 -2 -0 -0 -0 -0 -4 -0 -0 -1 -1 -1 -1 -0 -0 -1 -2 -0 -0 -1 -1 -2 -2 -0 -0 -0 -2 -0 -0 -1 -0 -0 -0 -0 -0 -0 -0
-0 -0 -0 -0 -0 -1 -28 -7 -4 -9 -16 -2 -0 -0 -0 -0 -0 -3 -1 -2 -0 -0 -2 -1 -0 -1 -1 -0 -1 -1 -1 -1 -1 -1 -5 -0 -1 -0 -3 -3 -0 -0 -0 -0 -0 -0 -0
Wind_Speed
22 23 23 24 24 25 25 25 26 27 27 27 28 29 29 30 31 31 31 32 32 32 31 31 30 29 24 22 18 20 25 24 22 22 22 21 20 18 18 18 17 16 14 17 18 15 13
24 24 25 25 25 26 26 26 27 27 28 28 29 30 30 31 32 33 34 34 34 34 34 33 31 29 25 25 21 24 25 24 22 22 21 20 19 19 18 19 19 18 18 20 18 13 13
24 24 25 26 26 27 28 28 28 28 29 29 30 31 32 32 33 35 35 36 36 36 36 33 29 26 27 28 23 24 24 23 22 21 21 19 19 20 19 19 19 19 21 17 16 13 14
25 25 26 26 27 28 28 28 29 30 31 31 31 32 33 34 34 36 37 38 39 39 35 30 27 26 28 23 25 22 24 20 20 19 18 18 18 19 20 19 20 20 20 20 16 14 15
25 26 26 26 28 28 29 29 29 30 31 32 33 34 35 36 36 37 39 40 41 36 31 29 27 25 28 21 18 21 23 23 19 17 17 17 18 20 20 23 23 20 24 22 21 17 18
27 27 27 27 27 28 29 29 30 31 31 32 33 35 36 37 38 38 40 41 35 30 25 25 24 25 22 20 24 28 21 20 19 16 16 18 19 21 21 23 28 26 25 23 25 21 19
27 28 28 28 28 28 29 29 29 30 31 32 33 34 35 36 37 37 36 30 28 25 24 27 28 29 31 28 26 21 18 19 18 18 20 19 21 23 25 23 22 23 25 27 27 24 24
26 27 28 29 29 29 29 29 30 30 30 32 33 34 35 35 35 35 28 25 23 24 31 27 28 30 29 24 22 20 17 17 16 20 17 20 22 23 20 19 21 23 27 27 26 20 21
27 28 29 29 30 30 29 29 30 30 31 31 32 33 34 35 34 25 23 21 23 24 28 27 23 24 21 16 20 20 17 16 17 17 18 21 19 20 21 22 24 25 25 27 29 30 26
27 29 29 29 30 30 30 30 30 30 30 31 31 32 32 34 25 24 21 22 24 20 29 25 19 18 16 17 19 17 15 17 18 20 18 22 19 21 22 25 24 28 22 26 29 28 25
28 29 31 31 30 30 30 30 30 30 30 30 30 31 31 26 26 21 22 24 22 18 34 19 17 13 12 16 15 17 13 14 16 15 15 19 19 20 23 24 19 24 24 28 31 31 33
28 29 30 32 32 31 31 31 31 31 30 30 31 30 30 24 23 22 25 24 16 25 36 21 16 17 15 15 16 13 15 14 16 18 21 24 21 22 22 21 19 22 28 31 30 28 26
29 30 31 31 32 32 32 31 31 31 31 31 30 30 29 25 23 24 25 18 26 33 23 24 22 20 20 17 17 17 17 19 23 25 25 24 23 21 20 22 19 20 25 28 24 22 27
29 30 30 31 32 32 32 32 31 31 31 31 31 31 27 26 27 24 20 22 36 33 31 24 22 21 25 21 24 24 26 25 23 24 28 30 29 18 15 18 21 19 19 24 30 31 38
28 29 30 31 31 32 32 32 31 31 30 30 31 29 28 22 22 20 22 34 37 34 29 29 27 31 31 28 27 26 28 30 25 22 29 29 28 18 19 19 18 18 21 22 30 33 34
28 29 30 30 31 31 32 31 31 30 29 27 29 29 28 23 20 20 27 37 34 30 30 30 36 31 37 32 29 29 30 25 24 23 24 26 34 26 22 20 22 22 21 25 23 32 36
29 30 31 31 31 31 31 31 30 28 27 25 27 30 24 21 20 26 37 35 33 27 28 32 36 37 36 33 35 35 33 25 22 23 20 25 29 29 26 27 28 22 24 25 29 29 36
32 31 32 32 32 32 31 30 29 28 23 24 27 33 23 19 29 31 40 31 31 32 29 30 31 32 34 32 35 33 33 27 21 27 29 27 31 37 35 29 28 31 32 29 31 31 31
32 33 32 33 33 33 33 31 29 26 21 22 28 30 21 21 38 39 34 38 35 34 32 32 33 30 31 33 37 34 32 26 26 25 26 30 32 42 41 35 30 33 32 32 33 35 36
34 35 35 35 35 35 33 32 29 27 22 21 26 31 26 26 30 34 37 38 39 31 37 36 35 36 37 38 35 39 36 32 30 33 34 32 38 43 48 40 32 34 33 33 32 37 39
36 36 36 37 37 36 35 33 31 28 22 20 24 29 27 31 33 32 30 32 37 38 31 31 35 37 40 44 44 48 46 46 43 39 35 32 47 43 48 50 47 45 48 49 47 46 47
39 38 37 39 40 39 37 34 33 29 22 24 25 26 24 30 28 31 32 35 38 34 34 35 38 36 35 41 41 45 43 42 43 35 34 35 52 43 54 53 52 49 53 50 48 49 49
40 41 39 39 40 38 37 35 34 31 21 26 25 25 25 27 30 32 33 33 34 31 32 35 37 38 40 38 38 39 41 42 42 41 40 41 42 41 57 52 50 55 47 51 51 48 48
42 42 42 42 41 38 39 39 37 35 27 26 23 22 26 32 30 31 30 29 31 32 35 33 34 36 30 31 40 44 46 48 47 46 41 46 43 40 55 51 60 54 46 46 51 50 47
44 44 44 43 44 43 43 42 40 37 33 28 25 24 26 33 31 30 29 30 29 29 34 36 36 35 33 38 42 44 45 48 50 48 45 42 44 46 51 56 59 58 51 46 51 56 49
46 46 47 47 49 47 44 43 42 38 32 27 29 25 27 31 35 31 31 29 33 33 34 34 33 31 30 32 35 45 47 43 43 37 30 33 37 43 45 55 61 51 49 47 50 68 51
47 48 49 50 51 51 44 40 39 37 31 26 28 27 28 32 31 25 28 31 30 31 34 31 32 30 26 33 40 45 51 42 50 47 39 37 37 45 50 55 59 54 54 50 54 56 38
47 48 49 50 50 42 32 34 35 30 27 23 29 23 28 33 36 31 30 34 32 30 31 26 28 26 28 33 36 38 44 45 50 54 53 53 51 56 54 59 70 46 47 52 51 53 50
46 47 48 49 43 33 30 30 28 25 24 21 26 21 22 29 31 29 33 32 31 32 35 34 33 31 26 30 30 32 40 40 43 56 44 43 39 44 44 50 43 41 52 56 54 52 49
Wind_Direction
302 301 303 306 305 305 300 306 305 303 302 301 301 300 301 300 299 298 297 296 297 298 298 300 302 303 306 301 305 307 302 307 314 321 329 334 338 339 338 340 343 344 349 344 344 352 358
301 301 301 304 302 301 302 302 303 305 304 303 300 299 300 300 300 299 297 295 294 295 296 298 300 303 302 297 305 304 306 307 312 316 324 330 332 335 337 333 332 336 333 332 339 346 353
303 301 300 300 299 299 299 300 299 302 303 301 301 300 299 299 299 299 297 295 293 293 294 298 304 307 299 293 303 306 309 307 311 313 317 327 330 328 331 329 336 332 328 334 335 339 341
304 303 300 299 298 298 297 300 300 299 301 297 299 301 298 299 300 300 298 294 291 290 294 301 307 305 295 305 304 305 312 313 315 314 318 323 327 327 326 329 326 324 326 324 337 337 335
305 304 303 302 300 299 297 297 299 299 299 297 297 299 298 299 299 299 298 295 290 294 296 300 301 301 296 310 307 309 312 309 316 317 318 324 322 319 322 316 315 320 316 319 324 326 328
302 304 304 303 302 301 299 299 299 299 300 299 298 297 296 295 297 299 296 292 294 301 304 303 299 296 297 299 303 303 306 310 313 318 319 317 317 314 314 311 306 311 314 316 315 323 318
302 301 302 303 302 303 301 301 300 300 300 299 300 298 299 299 296 299 302 304 299 302 302 290 290 287 291 298 302 305 309 307 309 309 304 314 309 310 314 315 316 315 314 312 313 316 315
305 303 302 301 301 302 302 302 300 299 300 299 299 300 299 300 298 299 306 302 307 308 296 294 287 285 290 299 301 306 307 298 301 298 308 307 305 314 320 320 317 316 313 314 319 328 322
303 305 302 300 300 300 301 302 301 300 300 299 299 300 299 297 295 300 300 304 315 313 295 294 293 286 293 302 296 300 305 302 300 301 302 301 312 319 314 312 311 312 314 313 314 315 318
304 303 303 301 299 298 298 300 301 301 300 299 300 299 300 298 294 296 294 305 312 314 289 290 297 298 299 298 293 308 309 301 297 293 299 303 311 310 310 306 308 305 319 315 315 321 325
305 305 301 300 300 300 298 297 299 300 300 299 299 299 299 302 292 290 295 299 306 308 278 294 292 309 307 295 302 303 312 309 302 308 313 304 313 315 312 309 316 311 318 313 311 312 312
308 306 304 300 298 297 298 297 297 298 299 298 297 297 300 299 291 291 293 293 298 281 273 285 292 287 290 296 298 308 303 312 313 306 303 299 311 311 310 315 316 316 311 309 309 312 319
307 307 305 303 300 296 296 297 297 296 296 296 296 295 293 294 285 291 290 284 273 266 283 278 280 280 281 286 290 293 295 297 295 296 297 304 304 310 314 310 313 317 315 315 317 319 317
312 309 308 306 302 299 296 295 295 296 295 295 295 294 292 287 287 285 279 265 263 271 268 284 282 279 276 280 285 288 290 288 295 297 294 291 293 306 316 312 316 318 316 313 310 312 308
317 316 314 310 307 303 298 296 296 295 296 296 295 289 286 287 288 279 261 258 265 268 276 274 275 273 273 278 283 285 286 288 292 291 289 291 291 302 304 309 313 315 311 318 310 310 310
319 318 316 313 310 306 301 297 296 295 295 297 291 287 280 288 286 269 256 260 267 274 278 275 268 272 271 272 275 280 283 294 295 295 291 293 287 290 298 300 298 299 314 309 313 309 306
315 313 313 313 311 309 305 299 295 296 296 295 290 281 288 286 277 260 253 262 266 276 281 275 271 273 274 273 274 275 281 291 295 299 299 293 286 286 292 288 291 297 294 300 303 300 303
308 309 308 307 307 305 305 302 296 294 297 292 284 273 293 281 261 261 256 265 273 274 278 277 278 276 275 276 275 273 276 286 300 298 290 295 288 283 284 289 291 290 291 292 292 299 297
305 304 303 303 301 300 298 298 294 292 291 293 281 278 291 276 262 260 265 261 270 271 273 274 274 278 281 275 273 273 277 287 297 295 291 295 285 284 285 287 286 286 286 287 288 290 287
300 298 300 297 296 294 293 292 290 285 283 285 284 275 276 271 271 269 262 264 264 273 270 272 273 276 277 274 277 276 278 285 288 289 293 290 279 277 278 282 292 289 290 292 291 287 291
297 296 297 293 290 288 287 286 284 280 276 276 278 274 280 272 265 265 269 271 266 267 271 274 273 272 273 273 275 274 277 278 282 284 283 283 277 279 279 281 283 284 283 283 282 283 283
293 293 292 288 285 283 281 281 279 275 270 266 273 274 278 274 275 266 264 267 268 270 273 271 272 276 276 273 276 276 280 280 280 283 280 279 276 282 278 280 283 283 281 280 281 282 283
293 290 288 288 287 282 276 276 273 270 260 264 267 277 277 274 269 268 267 268 271 275 275 275 276 277 276 279 283 283 282 281 278 278 278 278 279 281 277 283 285 279 273 281 283 279 283
291 287 285 284 284 281 274 270 268 266 258 258 268 269 270 270 268 268 270 272 271 271 273 278 281 279 283 293 289 285 281 278 277 274 272 273 275 275 278 283 275 278 284 285 284 285 284
289 284 283 281 280 277 271 265 262 262 258 254 260 264 265 267 270 270 271 273 278 279 277 278 280 284 288 287 284 281 279 279 275 273 268 264 268 273 271 275 280 281 282 286 285 284 283
287 281 279 278 276 271 266 261 257 259 256 252 254 260 265 271 268 271 272 274 276 277 279 281 285 287 285 282 278 274 273 279 277 280 280 267 263 265 275 272 277 283 289 290 286 279 281
284 280 277 277 271 265 260 256 254 254 252 251 257 252 261 267 270 276 273 275 279 280 281 286 287 286 286 278 275 274 273 277 273 274 275 273 266 266 270 274 279 284 288 290 279 285 296
283 279 277 272 269 262 253 251 251 250 248 245 253 257 255 268 269 274 274 272 277 279 280 290 291 287 285 278 280 278 278 276 275 272 272 271 271 271 275 276 278 285 286 279 286 289 288
281 278 274 268 263 254 248 247 246 244 245 240 258 256 261 268 276 281 273 274 276 279 281 282 279 285 292 288 287 288 282 282 279 273 274 274 273 277 276 274 283 289 290 287 290 289 286